User: anonymous   Login
Location: *
(32.8140°S, 174.6161°E)
Time: 07:09:19
(UTC+00:00)
Language:

ADEOS II - Orbit

View from above orbital plane
View from above orbital plane
View from above satellite
View from above satellite

Ground track
Ground track

The orbit data is extracted from the following two-line orbital elements,

1 27597U 02056A   20049.88403796 +.00000021 +00000-0 +25939-4 0  9998
2 27597 098.5060 000.5682 0001351 038.0504 322.0773 14.27432651894753
Epoch (UTC): 18 February 2020 21:13:00
Eccentricity: 0.0001351
inclination: 98.5060°
perigee height: 799 km
apogee height: 801 km
right ascension of ascending node: 0.5682°
argument of perigee: 38.0504°
revolutions per day: 14.27432651
mean anomaly at epoch: 322.0773°
orbit number at epoch: 89475

The dashed part of the orbit path shows where the satellite is in the earth's shadow,  

DLR